Погода в Лесном

Россия / Саратовская область     51°34′30″N   42°45′35″E
В апреле 2022 года жителям России запретили посещать сайт meteo.paraplan.net по решению Генеральной прокуратуры. Аудитория сайта уменьшилась в 10 раз. Владельцы сайта не видят смысла в поддержке погодного сервера в таких условиях. Сайт будет закрыт в октябре.
темп.,
°C
ветер,
м/с
пор.,
м/с
влажн.,
%
обл.,
%
осадки,
мм/ч
давл.,
гПа
погр.,
м
3 октября, пн
пн301:00+19ююв91958100 0.1 1004723
04:00+18юв101950100 0.1 1002692
07:00+17ююв111961100 0.0 1001969
10:00+17ююв112167100 0.4 10021436
13:00+14юз61076100 4.6 10071030
16:00+16юз7105125 4.7 10091533
19:00+12ююз36665 0.0 1012118
22:00+11ююв49725 0.0 1014181
4 октября, вт
вт401:00+12ююв4967100 0.0 1015246
04:00+11юв5107381 0.0 1015211
07:00+10ююв487588 0.0 1016192
10:00+14ю51060100 0.0 1017521
13:00+17ю6950100 0.0 10171286
16:00+18ю694689 0.0 10161620
19:00+16ю41051100 0.0 1017343
22:00+13ююв7147998 0.2 1018454
5 октября, ср
ср501:00+12ююв7138486 0.2 1018432
04:00+11ююв511898 0.7 1018334
07:00+10ю5119435 0.4 1019295
10:00+13юз59717 0.4 1019657
13:00+16юз6946100 0.0 10191313
16:00+16юз694622 0.0 10191813
19:00+12зюз366145 0.0 1020134
22:00+12зюз2563100 0.0 1020229
6 октября, чт
чт601:00+11з487355 0.0 1020700
04:00+8зюз378565 0.0 1021195
07:00+7зюз37915 0.0 1021211
10:00+10з577260 0.0 1021532
13:00+13з785988 0.1 10201441
16:00+11з6874100 0.2 1021693
19:00+12з487593 0.0 1021676
22:00+10юз5118514 0.0 1021297
7 октября, пт
пт701:00+10юз5128433 0.0 1021330
04:00+11юз6138298 0.0 1020388
07:00+10зюз5128614 0.0 1020319
10:00+12з69770 0.0 1020478
13:00+16зсз676685 0.0 1021996
16:00+16зсз576050 0.0 10211189
19:00+12сз36710 0.0 1023106
22:00+10зсз37780 0.0 1024125